Regional Weather Roundup
Issued by NWS

Home | Current Version | Previous Version | Graphics & Text | Print | Product List | Glossary On
Versions: 1 2 3 4 5 6 7 8 9 10 11 12 13 14 15 16 17 18 19 20 21 22 23 24 25 26 27 28 29 30 31 32 33 34 35 36 37 38 39 40 41 42 43 44 45 46 47 48 49 50
000
ASUS43 KIND 282109
RWRIN

WEATHER ROUNDUP FOR INDIANA
NATIONAL WEATHER SERVICE INDIANAPOLIS IN
400 PM EST FRI NOV 28 2014

NOTE: "FAIR" INDICATES FEW OR NO CLOUDS BELOW 12,000 FEET WITH NO
SIGNIFICANT WEATHER AND/OR OBSTRUCTIONS TO VISIBILITY.

* - STATION DOES NOT REPORT WEATHER SUCH AS PRECIPITATION OR FOG.

+ - STATION NOT QUALITY CONTROLLED BY THE NATIONAL WEATHER SERVICE.
    USE DATA WITH CAUTION...ESPECIALLY DEWPOINT AND RELATIVE
    HUMIDITY OBSERVATIONS.

INZ001>003-010>013-019-020-282200-
NORTHWEST INDIANA

CITY           SKY/WX    TMP DP  RH WIND       PRES   REMARKS
GARY /AIRPORT/ CLOUDY    32  19  59 SE18      30.03F WCI  20
KNOX *+        CLOUDY    30  21  67 S17       30.07F WCI  18
LA PORTE +     CLOUDY    31  22  68 S12G18    30.05F WCI  22
MICHIGAN CITY+ CLOUDY    30  19  64 S8G22     30.05F WCI  23
MONTICELLO +   CLOUDY    31  21  67 S10G17    30.08F WCI  22
RENSSELAER +   CLOUDY    32  27  80 SE14      30.05F WCI  22
VALPARAISO     CLOUDY    30  19  63 S13       30.04F WCI  20

$$

LMZ046-743>745-282200-
SOUTHERN LAKE MICHIGAN

STATION/POSITION TIME  TEMP WIND        PRES
                       AIR  DIR/SP/G
                 (UTC) (F)  (DEG/KT/KT) (MB)
MICHIGAN CITY    2100   30  140/ 15/ 18   N/A

$$

INZ004-005-014>016-021>024-282200-
NORTH CENTRAL INDIANA

CITY           SKY/WX    TMP DP  RH WIND       PRES   REMARKS
GOSHEN         PTSUNNY   28  19  69 SE15      30.10F WCI  16
LOGANSPORT +   CLOUDY    32  21  64 S14       30.11F WCI  22
PERU/GRISSOM   CLOUDY    30  22  72 S14G21    30.10F WCI  20
ROCHESTER +    CLOUDY    32  23  69 SE12      30.09F WCI  23
SOUTH BEND     CLOUDY    29  20  69 SE13      30.08F WCI  19
WARSAW +       CLOUDY    30  19  64 S7        30.10F WCI  23

$$

INZ006>009-017-018-025>027-282200-
NORTHEAST INDIANA

CITY           SKY/WX    TMP DP  RH WIND       PRES   REMARKS
ANGOLA *+      SUNNY     27  12  54 S9        30.12F WCI  17
AUBURN +       PTSUNNY   30  19  64 S3        30.14F
FORT WAYNE     CLOUDY    30  19  63 S13       30.15F WCI  20
HUNTINGTON +   CLOUDY    30  19  64 S9        30.13F WCI  22

$$

INZ028-029-035-036-043>045-051>053-282200-
WEST CENTRAL INDIANA

CITY           SKY/WX    TMP DP  RH WIND       PRES   REMARKS
GREENCASTLE +  MOSUNNY   34  25  69 SE10      30.11F WCI  26
LAFAYETTE      CLOUDY    33  22  63 S13       30.09F WCI  24
TERRE HAUTE    FAIR      38  27  64 S13       30.09F

$$

INZ030>032-037>040-046>048-054>057-064-065-282200-
CENTRAL INDIANA

CITY           SKY/WX    TMP DP  RH WIND       PRES   REMARKS
ANDERSON       SUNNY     30  18  59 S12G29    30.16F WCI  21
CP ATTERBURY + PTSUNNY   36  23  60 S10G17    30.17F
COLUMBUS       PTSUNNY   36  21  55 S14       30.17
FRANKFORT +    CLOUDY    32  23  70 SE14G20   30.10F WCI  22
INDIANAPOLIS   PTSUNNY   33  21  61 SE13      30.11F WCI  24
-EAGLE CREEK   PTSUNNY   33  20  58 SE13      30.12F WCI  24
KOKOMO *+      CLOUDY    30  19  64 S14       30.11F WCI  20
MARION +         N/A     31  18  59 S14       30.14F HAZE    WCI  21
MT COMFORT *+  CLOUDY    32  14  47 S13       30.14F WCI  22
SHELBYVILLE    PTSUNNY   34  21  59 S18       30.15F WCI  23
ZIONSVILLE +   PTSUNNY   32  20  61 SE13G18   30.12F WCI  22

$$

INZ033-034-041-042-049-050-058-059-282200-
EAST CENTRAL INDIANA

CITY           SKY/WX    TMP DP  RH WIND       PRES   REMARKS
MUNCIE         CLOUDY    32  17  54 S14       30.14F WCI  22

$$

INZ060-061-067>069-081>083-085>088-282200-
SOUTHWEST INDIANA

CITY           SKY/WX    TMP DP  RH WIND       PRES   REMARKS
EVANSVILLE     SUNNY     44  28  53 S10G20    30.15F
HUNTINGBURG *+ SUNNY     41  27  56 S12       30.16F
WASHINGTON +   MOSUNNY   39  29  66 S15       30.13F

$$

INZ062-063-066-070>080-084-089>092-282200-
SOUTH CENTRAL AND SOUTHEAST INDIANA

CITY           SKY/WX    TMP DP  RH WIND       PRES   REMARKS
BLOOMINGTON    SUNNY     37  24  59 S12       30.12F

$$




USA.gov is the U.S. government's official web portal to all federal, state and local government web resources and services.